COSMOS 2251 DEB, 34409

Orbit data source: Space-Track

COSMOS 2251 DEB, 34409 is space debris in LEO originally from a launch on Wed, 16 Jun 1993 UTC launched from the Plesetsk Missile And Space Complex (PKMTR). The debris from Iridium 33, an American commercial communications satellite, has been tracked extensively since its accidental collision with the defunct Russian satellite Cosmos 2251 in 2009. This event, occurring at high speed in low Earth orbit (LEO), generated thousands of pieces of space debris, significantly increasing the risk of further collisions. The Iridium 33 debris cloud has impacted space traffic management and orbital debris mitigation strategies, making it a subject of ongoing study in space situational awareness.

Loading next visibility...
Identifier
34409, 1993-036RA
Orbit
LEO
Country
Flag of CISCIS
Related business
Manufacturer
Unknown
Mission
Spacecraft
Bus & Motor
Unknown
Mass
Unknown
Launch date (UTC)
1993-06-16 (33 years ago)
Launch vehicle
Unknown
Launch site
Plesetsk Missile And Space Complex (PKMTR)
Object type
Payload
Rocket body
Debris
Shape & HBR
Unknown shape, 0.1 m
Radar Cross Section
Small (<0.1 m²)

Expand to show TLE details & history
Last TLE update: 8 hours ago

TLE from 8 hours ago
0 COSMOS 2251 DEB
1 34409U 93036RA  26062.30539023  .00001305  00000-0  27668-3 0  9993
2 34409  74.0637 153.8027 0080697 209.1319 208.3703 14.58238451903679
Epoch: 2026-03-03T07:19Z
TLE epoch observation values (Epoch: 2026-03-03T07:19:45.715Z)
Latitude
53.91706°
Longitude
-94.2862°
Altitude
757.745 km
Speed
7.454 km/s
True Right ascension
11h 46m 57s
True Declination
53° 45' 12"
Sunlit
Object was in full shadow at epoch
Visualization orbit readout
Latitude
Unknown
Longitude
Unknown
Altitude
Unknown
Speed
Unknown
Apparent Right ascension
Unknown
Apparent Declination
Unknown
Sunlit
N/A
Visualization observer readout
Local Sidereal Time
19:32:06
Azimuth
Unknown
Elevation
Unknown
Doppler factor
Unknown
Orbital elements
Apogee altitude
753.554 km
Perigee altitude
639.375 km
Semi-major axis
7,074.601 km
Eccentricity
0.00807
Inclination
74.0637°
RAAN
153.8027°
Arg. of periapsis
209.1319°
True anomaly
207.93477°
Mean anomaly
208.3703°
Eccentric anomaly
208.15215°
Mean motion
3.64746 °/min
Orbital period
98.7 mins
BSTAR
0.00027668
Loading maneuver chart data...
Computing Atmospheric mass density...

Documentation

Showing up to 5 results
|